Location: Unspecified
(17.6330°N, 0.0000°E)
Time: 18:18:31
(UTC+00:00)

S-56A Canister/Altair - Pass Details

Date: 02 July 2019
Orbit: 632 x 2500 km, 38.9° (Epoch: 20 July)

Event Time Altitude Azimuth Distance (km) Brightness Sun altitude
Rises 16:19:42 0° 307° (NW) 5,287 12.8 30.3°
Reaches altitude 10° 16:24:53 10° 323° (NW) 3,907 12.1 29.1°
Maximum altitude 16:31:31 20° 6° (N) 2,673 10.6 27.6°
Drops below altitude 10° 16:36:38 10° 51° (NE) 2,917 10.3 26.4°
Sets 16:39:46 0° 69° (ENE) 3,605 10.5 25.7°
